SCP
0 0 0 0 0 0 0 0 0 0 0 0 0 0 0 0 0 0 0 1 1 1 1 1 1 1 1 1 1 0 0 0 0 0 0 0 0 -0 -0 -0 -0 -0 0
0 0 0 0 0 0 0 0 0 0 0 0 0 0 0 0 0 0 0 1 1 1 1 1 1 1 1 1 1 0 0 0 0 0 0 0 0 -0 -0 -0 -0 -0 0
0 0 0 0 0 0 0 0 0 0 0 0 0 0 0 0 0 0 0 0 1 1 1 1 1 1 1 1 1 0 0 0 0 0 0 0 0 -0 -0 -0 -0 -0 0
1 2 1 1 0 0 0 0 0 0 0 0 0 0 0 0 0 0 0 0 1 1 1 1 1 1 1 1 1 0 0 0 0 0 0 0 0 0 0 -0 -0 -0 -0
2 1 2 1 1 0 0 0 0 0 0 0 0 0 0 0 0 0 0 1 1 1 1 0 0 0 1 1 1 0 1 0 0 0 0 0 0 0 0 0 0 0 0
2 3 3 2 1 1 0 0 0 0 0 0 0 0 0 0 0 0 1 1 1 1 1 0 0 0 0 0 1 0 1 0 0 0 0 0 0 0 0 0 0 0 0
3 2 2 3 2 1 0 0 0 0 0 0 0 0 0 0 0 1 1 1 2 1 1 1 1 0 0 0 0 0 0 0 0 0 0 0 0 0 0 0 0 0 0
1 4 3 2 2 1 1 0 0 0 0 0 1 1 1 0 -0 -0 1 1 2 2 1 1 1 0 0 0 0 0 1 0 0 0 0 0 0 0 0 0 0 0 0
0 1 3 4 2 1 1 1 1 1 0 0 0 2 2 0 0 -0 -0 1 1 2 1 1 1 1 1 1 1 1 1 0 0 0 0 0 0 0 0 0 0 0 0
1 0 2 2 2 2 1 1 1 1 1 1 1 2 4 2 1 0 0 1 1 1 2 1 1 1 1 1 1 1 1 0 0 0 0 0 0 0 0 0 0 0 0
2 1 1 2 3 1 1 1 1 1 1 1 3 1 0 0 0 0 0 0 0 1 1 1 1 1 1 1 1 1 1 0 0 0 0 0 0 0 0 0 0 0 0
2 4 1 2 2 1 2 1 1 1 1 1 3 1 0 0 1 1 1 1 1 1 1 1 1 1 1 1 0 1 1 1 1 0 0 0 0 0 0 0 0 0 0
1 6 5 2 3 1 0 1 1 2 2 2 2 1 1 1 2 1 1 1 1 1 1 1 1 1 0 0 0 0 0 0 0 0 0 0 0 0 0 0 0 0 0
0 0 1 4 3 1 1 2 1 0 1 2 2 2 1 1 3 1 2 1 1 0 0 1 0 0 0 0 0 0 0 0 0 0 0 0 0 0 0 0 0 0 0
0 0 0 1 2 3 1 1 2 1 1 2 2 2 2 3 3 2 1 1 0 1 0 0 0 0 0 0 0 0 0 0 0 0 0 0 0 0 0 0 0 0 0
1 0 0 0 0 0 3 4 3 2 3 5 4 3 3 4 3 2 1 1 1 0 1 0 0 0 0 0 0 0 0 0 0 0 0 0 0 0 0 0 0 0 0
1 1 1 0 0 1 1 4 5 6 5 4 4 5 4 4 3 1 1 1 0 1 1 0 1 0 0 0 0 0 0 0 0 0 0 0 0 0 0 0 -0 -0 -0
0 1 1 1 1 1 1 1 3 4 3 4 4 5 3 3 2 2 1 1 1 0 1 0 0 0 0 0 0 0 0 0 0 0 0 0 0 0 0 0 0 -0 -0
0 0 0 0 0 1 1 1 1 2 2 3 4 4 2 2 2 2 1 1 1 1 0 0 0 0 0 0 0 0 0 0 0 0 0 0 0 0 0 0 0 0 -0
0 0 0 0 0 0 0 1 1 1 1 2 3 3 2 2 2 2 1 1 1 1 0 0 0 0 0 0 0 0 0 0 0 0 0 0 0 0 0 0 0 0 0
0 0 0 0 0 0 0 0 0 0 2 3 3 2 2 2 1 2 2 1 1 0 0 0 0 0 0 0 0 0 0 0 0 0 0 0 0 0 0 0 0 0 0
0 0 0 0 0 0 0 0 0 1 2 2 2 2 2 1 1 1 2 1 0 0 0 0 0 0 0 0 0 0 0 0 0 0 0 0 0 0 0 0 0 0 -0
0 0 0 0 0 0 0 0 0 0 1 2 2 2 1 1 1 0 0 0 0 0 0 0 0 0 0 0 0 0 0 0 0 0 0 0 0 0 0 0 0 0 0
0 0 0 0 0 0 0 0 0 0 0 1 2 1 1 0 0 0 0 0 0 0 0 0 0 0 0 0 0 0 0 0 0 0 0 0 0 0 0 0 0 0 -0
0 0 0 0 0 0 0 0 0 0 0 1 1 1 1 0 0 0 0 0 0 0 0 0 0 0 0 0 0 0 0 0 0 0 0 0 0 0 0 0 0 0 0
0 0 0 0 0 0 0 0 0 0 0 1 2 1 1 0 0 0 0 0 0 0 0 0 0 0 0 0 0 0 0 0 0 0 0 0 0 0 0 0 0 0 0
Wind_Speed_500mb
47 41 36 28 21 21 16 18 22 18 21 24 22 23 25 26 29 38 48 48 45 46 45 40 39 39 38 35 34 32 31 30 31 28 24 21 27 33 31 32 31 33 35
49 44 39 35 33 29 26 27 30 33 35 40 41 38 39 38 35 33 35 39 39 39 39 41 35 35 35 35 37 35 32 30 32 32 31 29 27 32 35 34 35 35 37
46 48 45 45 44 36 35 36 36 37 39 46 48 52 49 46 40 37 38 37 39 33 30 33 30 30 33 32 35 38 36 30 33 34 35 34 30 30 36 37 36 37 39
38 39 51 52 47 42 42 50 45 49 49 55 59 54 47 42 41 44 43 42 41 39 34 35 32 29 31 28 31 38 39 33 35 36 36 35 33 32 34 38 38 39 40
43 42 44 47 53 46 44 43 42 46 44 45 56 53 48 46 46 54 54 43 42 39 38 35 33 35 26 26 27 33 39 38 35 37 39 37 34 34 33 38 39 40 41
49 50 50 50 56 52 50 49 52 54 49 51 59 58 49 44 49 65 67 53 46 43 38 38 31 25 24 25 29 24 30 35 34 38 41 39 36 36 35 37 39 40 42
43 50 57 54 53 57 48 54 50 55 59 49 60 61 51 48 54 74 69 52 53 49 39 42 34 28 29 29 26 30 34 33 35 34 38 40 38 37 36 37 40 40 42
62 55 57 62 53 60 43 45 49 51 62 55 54 39 40 52 85 79 67 52 54 54 42 42 38 34 34 32 33 32 36 38 38 35 32 39 39 39 38 36 40 41 41
30 64 67 71 72 67 59 53 60 81 77 56 57 31 18 24 68 80 60 43 42 49 43 38 40 40 37 40 37 37 31 30 35 33 34 36 39 40 39 37 40 43 42
50 35 47 63 73 77 81 75 75 84 83 59 49 48 50 50 44 61 74 48 34 39 44 33 39 41 42 37 35 37 31 34 33 33 34 36 38 39 40 38 36 44 43
61 70 54 54 73 68 75 76 81 89 89 63 56 48 55 58 62 75 88 66 45 42 39 30 31 31 39 34 36 36 33 34 34 32 34 36 33 37 40 38 34 41 44
79 97 90 75 57 70 83 87 91 83 80 73 72 66 73 77 64 64 56 76 58 51 44 37 36 35 35 35 36 34 33 33 36 36 36 34 34 35 36 36 34 38 44
64 79 85 74 72 66 81 92 95 95 93 88 83 76 81 78 67 63 62 72 55 56 47 40 38 38 33 35 35 35 32 39 36 38 35 33 31 34 36 35 34 36 40
54 55 54 56 62 63 99 89 87 78 75 79 79 77 83 85 72 69 64 66 57 47 35 29 29 32 33 32 35 31 35 37 37 37 36 31 32 33 37 36 33 36 40
58 63 57 57 52 53 61 65 72 71 74 72 74 83 80 78 73 56 67 66 65 54 38 32 27 30 31 35 35 37 38 38 37 31 26 26 28 31 35 35 32 33 37
37 46 57 63 68 65 58 59 63 61 74 70 73 78 79 71 70 60 68 61 66 66 47 26 28 32 33 38 41 41 39 38 39 35 28 24 24 25 31 32 31 34 37
37 39 47 59 68 71 68 60 62 65 72 72 73 77 74 72 67 59 62 66 65 62 44 35 28 37 37 39 37 37 40 35 34 30 27 22 21 23 25 28 31 33 33
49 50 48 54 60 61 67 76 71 71 73 75 79 77 77 70 62 53 52 63 57 43 41 37 34 36 34 29 32 35 36 30 30 18 21 23 25 27 27 30 30 29 29
52 58 59 64 60 62 59 64 75 79 77 75 83 75 78 65 60 51 55 58 45 39 41 46 39 36 29 26 29 29 28 27 23 18 21 24 27 28 29 29 30 28 30
66 70 68 64 66 64 63 61 67 72 77 71 72 75 72 64 63 55 55 59 47 43 39 43 35 31 27 28 25 19 15 6 8 12 18 25 24 27 32 30 32 31 30
62 62 66 66 64 66 68 61 64 73 75 71 74 70 67 62 55 54 52 53 52 49 49 44 41 39 35 32 26 17 9 12 9 9 15 20 21 23 28 33 34 35 33
71 69 67 72 74 72 69 68 58 72 72 74 76 75 70 57 56 54 53 51 47 57 49 42 43 42 36 29 21 21 17 21 16 16 15 19 21 23 26 29 33 36 36
81 80 75 74 73 69 68 69 69 68 73 78 78 71 65 58 56 48 53 51 44 48 43 43 45 40 34 28 25 24 24 19 16 11 20 22 20 20 24 27 30 35 39
77 84 84 78 74 74 72 68 71 73 65 79 70 72 64 53 50 46 50 46 46 42 37 42 39 34 29 28 30 25 24 15 21 15 19 24 24 24 20 24 27 31 35
103 93 88 79 79 76 77 70 66 73 69 74 71 61 61 53 51 49 49 44 43 40 42 40 37 32 28 24 27 29 38 31 27 23 28 25 25 23 20 18 17 25 32
81 80 86 79 83 79 81 73 65 69 66 71 60 61 50 48 45 42 38 34 36 32 32 30 30 28 28 28 28 28 31 33 28 22 25 34 24 19 11 17 17 21 28
Wind_Direction_500mb
225 230 237 242 252 248 266 288 285 291 299 299 306 308 295 297 293 278 272 277 280 281 285 291 296 302 301 269 257 256 260 263 259 263 266 265 265 255 243 235 233 229 233
228 230 234 241 250 258 269 276 289 301 304 310 307 302 303 299 293 297 302 300 294 290 286 285 293 295 305 277 261 258 257 258 255 259 263 273 270 255 247 238 237 234 237
235 239 238 233 241 254 268 273 274 280 292 290 290 296 297 291 296 302 307 306 306 301 306 292 283 297 299 295 260 259 259 261 255 257 258 274 267 255 249 240 238 235 236
239 240 236 241 242 242 240 243 252 260 269 276 279 283 288 288 290 298 306 311 305 305 308 315 283 283 288 297 269 260 260 264 261 256 257 268 265 257 249 244 239 234 234
244 246 248 248 248 248 251 250 248 258 266 273 283 290 302 296 301 301 295 302 300 299 304 302 297 281 281 283 292 268 263 267 266 259 256 261 264 260 252 244 240 236 231
244 252 253 254 251 253 250 250 254 259 271 276 286 283 291 297 305 294 294 294 296 295 293 293 286 307 290 280 284 274 279 275 276 269 262 256 259 255 257 244 240 238 233
237 248 254 254 255 248 250 251 260 268 272 276 283 276 288 300 316 309 289 285 285 286 285 278 275 272 281 282 285 285 273 271 274 270 262 256 257 252 253 246 239 236 235
232 248 258 255 260 253 255 255 266 280 277 274 267 276 296 295 301 313 289 277 284 278 278 270 270 273 270 275 293 291 276 266 273 270 268 257 255 250 248 248 240 235 233
244 238 253 262 266 257 253 264 277 291 288 286 270 249 258 281 309 300 300 289 279 271 268 264 261 264 267 270 278 286 284 289 282 278 278 268 251 248 246 245 239 234 233
235 248 266 266 264 266 259 273 282 273 270 274 260 257 254 267 292 284 274 285 266 262 259 260 258 258 264 261 271 280 288 286 284 289 283 278 256 244 244 243 241 233 232
240 238 272 277 265 275 273 269 273 271 262 264 259 251 249 249 275 261 274 276 273 258 256 257 247 257 252 262 273 275 281 288 291 292 282 282 262 246 242 243 241 234 230
248 240 253 264 273 279 270 271 268 267 269 270 262 252 255 267 252 267 259 265 278 270 262 268 253 259 258 264 265 278 274 278 285 289 285 280 262 249 246 241 241 236 229
233 235 240 248 247 251 268 269 265 264 271 273 263 258 258 253 263 262 264 261 272 272 258 254 249 258 261 257 260 263 268 290 286 290 286 283 255 247 241 237 239 235 228
233 228 234 241 238 226 256 261 261 264 267 266 260 262 258 256 254 250 254 262 260 261 241 252 264 260 255 250 253 260 270 281 286 288 282 278 252 242 233 234 239 237 224
240 240 242 240 247 256 259 261 263 260 263 269 269 265 259 260 260 254 246 250 257 254 251 258 265 269 229 233 240 253 277 283 283 284 276 274 251 238 228 231 236 225 223
259 252 250 252 248 251 261 259 263 261 263 265 270 267 262 261 262 255 244 251 255 261 269 262 272 250 224 225 238 262 277 281 278 271 269 269 244 230 220 227 224 219 224
273 269 261 256 255 256 252 256 257 259 260 267 270 263 262 262 262 259 243 245 254 258 259 250 244 228 231 236 251 270 284 284 278 264 259 246 226 214 214 218 219 222 226
273 275 273 270 265 261 256 251 255 257 260 267 264 261 261 262 258 250 242 244 249 250 246 231 228 221 225 247 270 285 286 281 272 264 250 233 218 217 221 217 220 224 227
269 270 270 270 274 266 264 259 258 257 260 265 262 260 256 253 256 241 236 242 243 237 236 238 238 229 239 262 285 284 288 282 250 247 227 216 214 220 222 221 221 226 224
276 277 276 275 270 272 263 267 264 262 259 260 262 255 253 255 251 238 233 238 243 231 226 226 233 240 250 271 281 281 288 244 253 228 214 213 218 222 221 224 224 224 226
280 280 278 277 276 271 265 261 265 259 262 257 257 254 250 248 237 234 237 240 238 227 222 230 239 241 250 260 277 257 242 220 219 212 208 211 219 222 223 226 226 226 227
284 281 277 275 274 275 267 255 258 262 258 254 252 248 247 234 229 233 238 241 237 223 223 229 236 244 253 256 268 236 220 220 215 224 209 210 219 224 229 233 233 232 232
280 281 278 275 273 274 268 260 252 252 257 252 247 246 230 227 222 235 236 234 227 223 229 241 242 250 252 246 248 239 227 236 240 235 205 220 229 227 235 237 237 234 229
276 277 276 273 272 273 269 267 252 249 256 247 241 229 223 223 220 226 237 235 221 219 230 238 242 244 244 242 246 249 235 223 205 218 212 228 241 244 240 249 234 223 224
270 270 272 270 269 269 267 266 256 250 249 241 229 220 213 218 229 226 233 228 233 234 236 240 240 241 243 240 230 231 214 212 215 214 215 222 232 251 250 242 228 228 215
261 263 266 265 266 264 266 266 260 248 245 226 217 211 214 219 221 216 214 217 221 224 226 227 245 242 232 227 224 231 229 217 205 208 230 224 232 245 233 237 241 241 214
Wind_Speed_850mb
47 41 36 28 21 21 16 18 22 18 21 24 22 23 25 26 29 38 48 48 45 46 45 40 39 39 38 35 34 32 31 30 31 28 24 21 27 33 31 32 31 33 35
49 44 39 35 33 29 26 27 30 33 35 40 41 38 39 38 35 33 35 39 39 39 39 41 35 35 35 35 37 35 32 30 32 32 31 29 27 32 35 34 35 35 37
46 48 45 45 44 36 35 36 36 37 39 46 48 52 49 46 40 37 38 37 39 33 30 33 30 30 33 32 35 38 36 30 33 34 35 34 30 30 36 37 36 37 39
38 39 51 52 47 42 42 50 45 49 49 55 59 54 47 42 41 44 43 42 41 39 34 35 32 29 31 28 31 38 39 33 35 36 36 35 33 32 34 38 38 39 40
43 42 44 47 53 46 44 43 42 46 44 45 56 53 48 46 46 54 54 43 42 39 38 35 33 35 26 26 27 33 39 38 35 37 39 37 34 34 33 38 39 40 41
49 50 50 50 56 52 50 49 52 54 49 51 59 58 49 44 49 65 67 53 46 43 38 38 31 25 24 25 29 24 30 35 34 38 41 39 36 36 35 37 39 40 42
43 50 57 54 53 57 48 54 50 55 59 49 60 61 51 48 54 74 69 52 53 49 39 42 34 28 29 29 26 30 34 33 35 34 38 40 38 37 36 37 40 40 42
62 55 57 62 53 60 43 45 49 51 62 55 54 39 40 52 85 79 67 52 54 54 42 42 38 34 34 32 33 32 36 38 38 35 32 39 39 39 38 36 40 41 41
30 64 67 71 72 67 59 53 60 81 77 56 57 31 18 24 68 80 60 43 42 49 43 38 40 40 37 40 37 37 31 30 35 33 34 36 39 40 39 37 40 43 42
50 35 47 63 73 77 81 75 75 84 83 59 49 48 50 50 44 61 74 48 34 39 44 33 39 41 42 37 35 37 31 34 33 33 34 36 38 39 40 38 36 44 43
61 70 54 54 73 68 75 76 81 89 89 63 56 48 55 58 62 75 88 66 45 42 39 30 31 31 39 34 36 36 33 34 34 32 34 36 33 37 40 38 34 41 44
79 97 90 75 57 70 83 87 91 83 80 73 72 66 73 77 64 64 56 76 58 51 44 37 36 35 35 35 36 34 33 33 36 36 36 34 34 35 36 36 34 38 44
64 79 85 74 72 66 81 92 95 95 93 88 83 76 81 78 67 63 62 72 55 56 47 40 38 38 33 35 35 35 32 39 36 38 35 33 31 34 36 35 34 36 40
54 55 54 56 62 63 99 89 87 78 75 79 79 77 83 85 72 69 64 66 57 47 35 29 29 32 33 32 35 31 35 37 37 37 36 31 32 33 37 36 33 36 40
58 63 57 57 52 53 61 65 72 71 74 72 74 83 80 78 73 56 67 66 65 54 38 32 27 30 31 35 35 37 38 38 37 31 26 26 28 31 35 35 32 33 37
37 46 57 63 68 65 58 59 63 61 74 70 73 78 79 71 70 60 68 61 66 66 47 26 28 32 33 38 41 41 39 38 39 35 28 24 24 25 31 32 31 34 37
37 39 47 59 68 71 68 60 62 65 72 72 73 77 74 72 67 59 62 66 65 62 44 35 28 37 37 39 37 37 40 35 34 30 27 22 21 23 25 28 31 33 33
49 50 48 54 60 61 67 76 71 71 73 75 79 77 77 70 62 53 52 63 57 43 41 37 34 36 34 29 32 35 36 30 30 18 21 23 25 27 27 30 30 29 29
52 58 59 64 60 62 59 64 75 79 77 75 83 75 78 65 60 51 55 58 45 39 41 46 39 36 29 26 29 29 28 27 23 18 21 24 27 28 29 29 30 28 30
66 70 68 64 66 64 63 61 67 72 77 71 72 75 72 64 63 55 55 59 47 43 39 43 35 31 27 28 25 19 15 6 8 12 18 25 24 27 32 30 32 31 30
62 62 66 66 64 66 68 61 64 73 75 71 74 70 67 62 55 54 52 53 52 49 49 44 41 39 35 32 26 17 9 12 9 9 15 20 21 23 28 33 34 35 33
71 69 67 72 74 72 69 68 58 72 72 74 76 75 70 57 56 54 53 51 47 57 49 42 43 42 36 29 21 21 17 21 16 16 15 19 21 23 26 29 33 36 36
81 80 75 74 73 69 68 69 69 68 73 78 78 71 65 58 56 48 53 51 44 48 43 43 45 40 34 28 25 24 24 19 16 11 20 22 20 20 24 27 30 35 39
77 84 84 78 74 74 72 68 71 73 65 79 70 72 64 53 50 46 50 46 46 42 37 42 39 34 29 28 30 25 24 15 21 15 19 24 24 24 20 24 27 31 35
103 93 88 79 79 76 77 70 66 73 69 74 71 61 61 53 51 49 49 44 43 40 42 40 37 32 28 24 27 29 38 31 27 23 28 25 25 23 20 18 17 25 32
81 80 86 79 83 79 81 73 65 69 66 71 60 61 50 48 45 42 38 34 36 32 32 30 30 28 28 28 28 28 31 33 28 22 25 34 24 19 11 17 17 21 28
Wind_Direction_850mb
225 230 237 242 252 248 266 288 285 291 299 299 306 308 295 297 293 278 272 277 280 281 285 291 296 302 301 269 257 256 260 263 259 263 266 265 265 255 243 235 233 229 233
228 230 234 241 250 258 269 276 289 301 304 310 307 302 303 299 293 297 302 300 294 290 286 285 293 295 305 277 261 258 257 258 255 259 263 273 270 255 247 238 237 234 237
235 239 238 233 241 254 268 273 274 280 292 290 290 296 297 291 296 302 307 306 306 301 306 292 283 297 299 295 260 259 259 261 255 257 258 274 267 255 249 240 238 235 236
239 240 236 241 242 242 240 243 252 260 269 276 279 283 288 288 290 298 306 311 305 305 308 315 283 283 288 297 269 260 260 264 261 256 257 268 265 257 249 244 239 234 234
244 246 248 248 248 248 251 250 248 258 266 273 283 290 302 296 301 301 295 302 300 299 304 302 297 281 281 283 292 268 263 267 266 259 256 261 264 260 252 244 240 236 231
244 252 253 254 251 253 250 250 254 259 271 276 286 283 291 297 305 294 294 294 296 295 293 293 286 307 290 280 284 274 279 275 276 269 262 256 259 255 257 244 240 238 233
237 248 254 254 255 248 250 251 260 268 272 276 283 276 288 300 316 309 289 285 285 286 285 278 275 272 281 282 285 285 273 271 274 270 262 256 257 252 253 246 239 236 235
232 248 258 255 260 253 255 255 266 280 277 274 267 276 296 295 301 313 289 277 284 278 278 270 270 273 270 275 293 291 276 266 273 270 268 257 255 250 248 248 240 235 233
244 238 253 262 266 257 253 264 277 291 288 286 270 249 258 281 309 300 300 289 279 271 268 264 261 264 267 270 278 286 284 289 282 278 278 268 251 248 246 245 239 234 233
235 248 266 266 264 266 259 273 282 273 270 274 260 257 254 267 292 284 274 285 266 262 259 260 258 258 264 261 271 280 288 286 284 289 283 278 256 244 244 243 241 233 232
240 238 272 277 265 275 273 269 273 271 262 264 259 251 249 249 275 261 274 276 273 258 256 257 247 257 252 262 273 275 281 288 291 292 282 282 262 246 242 243 241 234 230
248 240 253 264 273 279 270 271 268 267 269 270 262 252 255 267 252 267 259 265 278 270 262 268 253 259 258 264 265 278 274 278 285 289 285 280 262 249 246 241 241 236 229
233 235 240 248 247 251 268 269 265 264 271 273 263 258 258 253 263 262 264 261 272 272 258 254 249 258 261 257 260 263 268 290 286 290 286 283 255 247 241 237 239 235 228
233 228 234 241 238 226 256 261 261 264 267 266 260 262 258 256 254 250 254 262 260 261 241 252 264 260 255 250 253 260 270 281 286 288 282 278 252 242 233 234 239 237 224
240 240 242 240 247 256 259 261 263 260 263 269 269 265 259 260 260 254 246 250 257 254 251 258 265 269 229 233 240 253 277 283 283 284 276 274 251 238 228 231 236 225 223
259 252 250 252 248 251 261 259 263 261 263 265 270 267 262 261 262 255 244 251 255 261 269 262 272 250 224 225 238 262 277 281 278 271 269 269 244 230 220 227 224 219 224
273 269 261 256 255 256 252 256 257 259 260 267 270 263 262 262 262 259 243 245 254 258 259 250 244 228 231 236 251 270 284 284 278 264 259 246 226 214 214 218 219 222 226
273 275 273 270 265 261 256 251 255 257 260 267 264 261 261 262 258 250 242 244 249 250 246 231 228 221 225 247 270 285 286 281 272 264 250 233 218 217 221 217 220 224 227
269 270 270 270 274 266 264 259 258 257 260 265 262 260 256 253 256 241 236 242 243 237 236 238 238 229 239 262 285 284 288 282 250 247 227 216 214 220 222 221 221 226 224
276 277 276 275 270 272 263 267 264 262 259 260 262 255 253 255 251 238 233 238 243 231 226 226 233 240 250 271 281 281 288 244 253 228 214 213 218 222 221 224 224 224 226
280 280 278 277 276 271 265 261 265 259 262 257 257 254 250 248 237 234 237 240 238 227 222 230 239 241 250 260 277 257 242 220 219 212 208 211 219 222 223 226 226 226 227
284 281 277 275 274 275 267 255 258 262 258 254 252 248 247 234 229 233 238 241 237 223 223 229 236 244 253 256 268 236 220 220 215 224 209 210 219 224 229 233 233 232 232
280 281 278 275 273 274 268 260 252 252 257 252 247 246 230 227 222 235 236 234 227 223 229 241 242 250 252 246 248 239 227 236 240 235 205 220 229 227 235 237 237 234 229
276 277 276 273 272 273 269 267 252 249 256 247 241 229 223 223 220 226 237 235 221 219 230 238 242 244 244 242 246 249 235 223 205 218 212 228 241 244 240 249 234 223 224
270 270 272 270 269 269 267 266 256 250 249 241 229 220 213 218 229 226 233 228 233 234 236 240 240 241 243 240 230 231 214 212 215 214 215 222 232 251 250 242 228 228 215
261 263 266 265 266 264 266 266 260 248 245 226 217 211 214 219 221 216 214 217 221 224 226 227 245 242 232 227 224 231 229 217 205 208 230 224 232 245 233 237 241 241 214